Location: Clarks Summit,Pa.
(41.5000°N, 75.6000°W)
Time: 20:59:54
(UTC-05:00)

Envisat - Pass Details

Date: 04 December 2021
Orbit: 764 x 766 km, 98.2° (Epoch: 16 January)

Event Time Altitude Azimuth Distance (km) Brightness Sun altitude
Rises 05:32:51 0° 7° (N) 3,241 6.2 -18.1°
Reaches altitude 10° 05:35:13 10° 3° (N) 2,311 5.4 -17.7°
Maximum altitude 05:40:07 51° 288° (WNW) 964 3.1 -16.8°
Drops below altitude 10° 05:45:00 10° 214° (SW) 2,294 5.3 -15.9°
Sets 05:47:20 0° 209° (SSW) 3,216 6.1 -15.5°
